Time,TemperatureF,DewpointF,PressureIn,WindDirection,WindDirectionDegrees,WindSpeedMPH,WindSpeedGustMPH,Humidity,HourlyPrecipIn,Conditions,Clouds,dailyrainin,SoftwareType,DateUTC
2013-06-09 00:05:00,75.0,74.0,30.09,ENE,59,4.0,4.0,96,0.00,,,0.00,weatherlink.com 1.10,2013-06-09 04:05:00,
2013-06-09 00:20:00,74.8,74.0,30.09,ENE,67,3.0,6.0,96,0.00,,,0.00,weatherlink.com 1.10,2013-06-09 04:20:00,
2013-06-09 00:35:00,74.7,73.0,30.09,ENE,68,3.0,5.0,95,0.00,,,0.00,weatherlink.com 1.10,2013-06-09 04:35:00,
2013-06-09 00:50:00,74.6,73.0,30.08,ENE,74,4.0,6.0,94,0.00,,,0.00,weatherlink.com 1.10,2013-06-09 04:50:00,
2013-06-09 01:05:00,74.4,73.0,30.08,ENE,77,4.0,5.0,94,0.00,,,0.00,weatherlink.com 1.10,2013-06-09 05:05:00,
2013-06-09 01:20:00,74.4,73.0,30.07,ENE,64,3.0,4.0,95,0.00,,,0.00,weatherlink.com 1.10,2013-06-09 05:20:00,
2013-06-09 01:35:00,74.8,73.0,30.07,ENE,72,7.0,7.0,95,0.00,,,0.00,weatherlink.com 1.10,2013-06-09 05:35:00,
2013-06-09 01:50:00,74.8,73.0,30.07,ENE,63,6.0,7.0,95,0.00,,,0.00,weatherlink.com 1.10,2013-06-09 05:50:00,
2013-06-09 02:05:00,74.8,73.0,30.06,East,95,0.0,6.0,95,0.00,,,0.00,weatherlink.com 1.10,2013-06-09 06:05:00,
2013-06-09 02:20:00,74.7,74.0,30.05,ENE,64,6.0,8.0,96,0.00,,,0.00,weatherlink.com 1.10,2013-06-09 06:20:00,
2013-06-09 02:35:00,74.6,73.0,30.05,NNE,22,4.0,7.0,96,0.00,,,0.00,weatherlink.com 1.10,2013-06-09 06:35:00,
2013-06-09 02:50:00,74.6,74.0,30.04,East,98,1.0,6.0,97,0.00,,,0.00,weatherlink.com 1.10,2013-06-09 06:50:00,
2013-06-09 03:06:00,74.6,74.0,30.04,ESE,108,0.0,5.0,97,0.00,,,0.00,weatherlink.com 1.10,2013-06-09 07:06:00,
2013-06-09 03:21:00,74.7,74.0,30.04,ENE,63,1.0,4.0,97,0.00,,,0.00,weatherlink.com 1.10,2013-06-09 07:21:00,
2013-06-09 03:36:00,74.9,74.0,30.04,NE,51,0.0,3.0,97,0.00,,,0.00,weatherlink.com 1.10,2013-06-09 07:36:00,
2013-06-09 03:51:00,75.2,75.0,30.04,SE,135,0.0,4.0,98,0.00,,,0.00,weatherlink.com 1.10,2013-06-09 07:51:00,
2013-06-09 04:06:00,75.4,75.0,30.04,South,172,0.0,5.0,98,0.00,,,0.00,weatherlink.com 1.10,2013-06-09 08:06:00,
2013-06-09 04:21:00,75.6,75.0,30.03,ENE,70,2.0,4.0,98,0.00,,,0.00,weatherlink.com 1.10,2013-06-09 08:21:00,
2013-06-09 04:36:00,75.8,75.0,30.03,ENE,68,6.0,7.0,98,0.00,,,0.00,weatherlink.com 1.10,2013-06-09 08:36:00,
2013-06-09 04:51:00,75.8,75.0,30.03,SE,134,0.0,5.0,97,0.00,,,0.00,weatherlink.com 1.10,2013-06-09 08:51:00,
2013-06-09 05:06:00,75.9,75.0,30.02,ENE,64,1.0,5.0,97,0.00,,,0.00,weatherlink.com 1.10,2013-06-09 09:06:00,
2013-06-09 05:21:00,75.9,75.0,30.02,NE,43,1.0,6.0,97,0.00,,,0.00,weatherlink.com 1.10,2013-06-09 09:21:00,
2013-06-09 05:36:00,75.9,75.0,30.02,SE,143,3.0,7.0,97,0.00,,,0.00,weatherlink.com 1.10,2013-06-09 09:36:00,
2013-06-09 05:51:00,75.9,75.0,30.03,SE,143,4.0,8.0,97,0.00,,,0.00,weatherlink.com 1.10,2013-06-09 09:51:00,
2013-06-09 06:06:00,75.9,75.0,30.04,ESE,117,0.0,5.0,97,0.00,,,0.00,weatherlink.com 1.10,2013-06-09 10:06:00,
2013-06-09 06:21:00,75.9,75.0,30.04,ESE,117,0.0,4.0,97,0.00,,,0.00,weatherlink.com 1.10,2013-06-09 10:21:00,
2013-06-09 06:36:00,75.9,75.0,30.04,ENE,61,1.0,3.0,97,0.00,,,0.00,weatherlink.com 1.10,2013-06-09 10:36:00,
2013-06-09 07:06:00,76.5,76.0,30.05,SSE,148,0.0,3.0,97,0.00,,,0.00,weatherlink.com 1.10,2013-06-09 11:06:00,
2013-06-09 07:36:00,77.9,76.0,30.05,ENE,77,0.0,4.0,95,0.00,,,0.00,weatherlink.com 1.10,2013-06-09 11:36:00,
2013-06-09 07:51:00,78.5,76.0,30.06,ENE,57,2.0,6.0,93,0.00,,,0.00,weatherlink.com 1.10,2013-06-09 11:51:00,
2013-06-09 08:06:00,79.8,77.0,30.07,ENE,65,4.0,6.0,91,0.00,,,0.00,weatherlink.com 1.10,2013-06-09 12:06:00,
2013-06-09 08:21:00,80.4,77.0,30.07,SE,133,0.0,3.0,88,0.00,,,0.00,weatherlink.com 1.10,2013-06-09 12:21:00,
2013-06-09 08:36:00,81.2,77.0,30.08,ESE,114,0.0,3.0,87,0.00,,,0.00,weatherlink.com 1.10,2013-06-09 12:36:00,
2013-06-09 08:51:00,81.9,77.0,30.08,SW,219,1.0,5.0,84,0.00,,,0.00,weatherlink.com 1.10,2013-06-09 12:51:00,
2013-06-09 09:21:00,82.7,76.0,30.07,East,96,4.0,8.0,81,0.00,,,0.00,weatherlink.com 1.10,2013-06-09 13:21:00,
2013-06-09 09:36:00,83.1,77.0,30.07,SE,146,3.0,8.0,81,0.00,,,0.00,weatherlink.com 1.10,2013-06-09 13:36:00,
2013-06-09 09:51:00,84.4,76.0,30.07,ENE,77,4.0,10.0,76,0.00,,,0.00,weatherlink.com 1.10,2013-06-09 13:51:00,
2013-06-09 10:06:00,84.4,76.0,30.06,NE,56,8.0,11.0,76,0.00,,,0.00,weatherlink.com 1.10,2013-06-09 14:06:00,
2013-06-09 10:21:00,85.4,76.0,30.07,South,179,2.0,8.0,73,0.00,,,0.00,weatherlink.com 1.10,2013-06-09 14:21:00,
2013-06-09 10:37:00,85.7,75.0,30.07,East,96,7.0,10.0,71,0.00,,,0.00,weatherlink.com 1.10,2013-06-09 14:37:00,
2013-06-09 10:52:00,86.2,76.0,30.07,SE,141,3.0,13.0,71,0.00,,,0.00,weatherlink.com 1.10,2013-06-09 14:52:00,
2013-06-09 11:07:00,86.3,76.0,30.07,SE,131,6.0,9.0,72,0.00,,,0.00,weatherlink.com 1.10,2013-06-09 15:07:00,
2013-06-09 11:22:00,87.2,77.0,30.07,ESE,110,2.0,14.0,71,0.00,,,0.00,weatherlink.com 1.10,2013-06-09 15:22:00,
2013-06-09 11:37:00,87.0,76.0,30.07,ENE,71,7.0,9.0,70,0.00,,,0.00,weatherlink.com 1.10,2013-06-09 15:37:00,
2013-06-09 11:52:00,88.7,75.0,30.08,ENE,65,7.0,9.0,65,0.00,,,0.00,weatherlink.com 1.10,2013-06-09 15:52:00,
2013-06-09 12:07:00,88.3,76.0,30.07,SE,129,4.0,7.0,67,0.00,,,0.00,weatherlink.com 1.10,2013-06-09 16:07:00,
2013-06-09 12:22:00,87.9,76.0,30.07,SE,143,6.0,6.0,67,0.00,,,0.00,weatherlink.com 1.10,2013-06-09 16:22:00,
2013-06-09 12:37:00,89.4,75.0,30.07,SE,145,0.0,6.0,63,0.00,,,0.00,weatherlink.com 1.10,2013-06-09 16:37:00,
2013-06-09 12:52:00,89.5,75.0,30.06,ENE,66,4.0,8.0,62,0.00,,,0.00,weatherlink.com 1.10,2013-06-09 16:52:00,
2013-06-09 13:07:00,90.4,75.0,30.06,SE,138,2.0,7.0,61,0.00,,,0.00,weatherlink.com 1.10,2013-06-09 17:07:00,
2013-06-09 13:22:00,90.6,74.0,30.06,ENE,66,7.0,11.0,58,0.00,,,0.00,weatherlink.com 1.10,2013-06-09 17:22:00,
2013-06-09 13:37:00,90.7,73.0,30.06,ENE,71,6.0,11.0,57,0.00,,,0.00,weatherlink.com 1.10,2013-06-09 17:37:00,
2013-06-09 13:52:00,89.3,74.0,30.05,NNE,28,2.0,11.0,61,0.00,,,0.00,weatherlink.com 1.10,2013-06-09 17:52:00,
2013-06-09 14:07:00,90.2,75.0,30.04,ENE,66,6.0,12.0,61,0.00,,,0.00,weatherlink.com 1.10,2013-06-09 18:07:00,
2013-06-09 14:22:00,89.4,74.0,30.04,NE,41,6.0,11.0,61,0.00,,,0.00,weatherlink.com 1.10,2013-06-09 18:22:00,
2013-06-09 14:37:00,92.2,74.0,30.03,SE,132,2.0,11.0,56,0.00,,,0.00,weatherlink.com 1.10,2013-06-09 18:37:00,
2013-06-09 14:52:00,92.0,75.0,30.03,ESE,104,5.0,8.0,57,0.00,,,0.00,weatherlink.com 1.10,2013-06-09 18:52:00,
2013-06-09 15:07:00,91.6,74.0,30.02,SE,129,2.0,6.0,57,0.00,,,0.00,weatherlink.com 1.10,2013-06-09 19:07:00,
2013-06-09 15:22:00,91.4,75.0,30.01,South,188,3.0,11.0,59,0.00,,,0.00,weatherlink.com 1.10,2013-06-09 19:22:00,
2013-06-09 15:37:00,92.2,75.0,30.01,South,174,0.0,4.0,57,0.00,,,0.00,weatherlink.com 1.10,2013-06-09 19:37:00,
2013-06-09 15:52:00,91.6,72.0,30.01,ENE,57,4.0,10.0,53,0.00,,,0.00,weatherlink.com 1.10,2013-06-09 19:52:00,
2013-06-09 16:07:00,88.4,77.0,30.01,WNW,294,8.0,12.0,68,0.00,,,0.00,weatherlink.com 1.10,2013-06-09 20:07:00,
2013-06-09 16:22:00,87.4,77.0,30.00,West,264,8.0,13.0,70,0.00,,,0.00,weatherlink.com 1.10,2013-06-09 20:22:00,
2013-06-09 16:37:00,86.7,76.0,30.00,West,276,6.0,14.0,71,0.00,,,0.00,weatherlink.com 1.10,2013-06-09 20:37:00,
2013-06-09 16:52:00,85.2,74.0,30.00,SSW,204,1.0,10.0,68,0.00,,,0.00,weatherlink.com 1.10,2013-06-09 20:52:00,
2013-06-09 17:07:00,83.1,76.0,30.00,NW,309,4.0,6.0,79,0.06,,,0.06,weatherlink.com 1.10,2013-06-09 21:07:00,
2013-06-09 17:22:00,79.6,76.0,30.00,SW,231,4.0,11.0,88,0.06,,,0.06,weatherlink.com 1.10,2013-06-09 21:22:00,
2013-06-09 17:37:00,80.1,76.0,30.00,West,263,3.0,7.0,87,0.06,,,0.06,weatherlink.com 1.10,2013-06-09 21:37:00,
2013-06-09 17:52:00,80.1,75.0,30.01,North,9,4.0,6.0,85,0.06,,,0.06,weatherlink.com 1.10,2013-06-09 21:52:00,
2013-06-09 18:07:00,79.3,75.0,30.00,WNW,299,2.0,6.0,86,0.00,,,0.06,weatherlink.com 1.10,2013-06-09 22:07:00,
2013-06-09 18:22:00,80.5,76.0,30.00,WNW,286,0.0,4.0,85,0.00,,,0.06,weatherlink.com 1.10,2013-06-09 22:22:00,
2013-06-09 18:37:00,81.4,76.0,30.00,WNW,294,4.0,6.0,84,0.00,,,0.06,weatherlink.com 1.10,2013-06-09 22:37:00,
2013-06-09 18:52:00,82.5,77.0,30.01,NW,320,5.0,5.0,83,0.00,,,0.06,weatherlink.com 1.10,2013-06-09 22:52:00,
2013-06-09 19:07:00,82.2,76.0,30.01,NW,314,5.0,7.0,82,0.00,,,0.06,weatherlink.com 1.10,2013-06-09 23:07:00,
2013-06-09 19:22:00,81.5,74.0,30.01,NNW,331,4.0,8.0,79,0.00,,,0.06,weatherlink.com 1.10,2013-06-09 23:22:00,
2013-06-09 19:37:00,81.3,75.0,30.00,NW,315,2.0,6.0,82,0.00,,,0.06,weatherlink.com 1.10,2013-06-09 23:37:00,
2013-06-09 19:52:00,82.0,76.0,30.01,NNE,12,2.0,5.0,81,0.00,,,0.06,weatherlink.com 1.10,2013-06-09 23:52:00,
2013-06-09 20:07:00,81.8,76.0,30.01,NNE,22,3.0,3.0,81,0.00,,,0.06,weatherlink.com 1.10,2013-06-10 00:07:00,
2013-06-09 20:22:00,81.0,75.0,30.02,North,359,0.0,3.0,82,0.00,,,0.06,weatherlink.com 1.10,2013-06-10 00:22:00,
2013-06-09 20:37:00,80.5,75.0,30.02,WNW,284,0.0,0.0,84,0.00,,,0.06,weatherlink.com 1.10,2013-06-10 00:37:00,
2013-06-09 20:52:00,80.1,75.0,30.03,ENE,61,2.0,2.0,85,0.00,,,0.06,weatherlink.com 1.10,2013-06-10 00:52:00,
2013-06-09 21:07:00,80.5,75.0,30.04,SSE,166,0.0,3.0,83,0.00,,,0.06,weatherlink.com 1.10,2013-06-10 01:07:00,
2013-06-09 21:22:00,81.1,74.0,30.04,ESE,115,6.0,7.0,80,0.00,,,0.06,weatherlink.com 1.10,2013-06-10 01:22:00,
2013-06-09 21:37:00,81.7,75.0,30.05,SE,127,0.0,7.0,79,0.00,,,0.06,weatherlink.com 1.10,2013-06-10 01:37:00,
2013-06-09 21:52:00,81.4,75.0,30.05,SE,124,0.0,3.0,80,0.00,,,0.06,weatherlink.com 1.10,2013-06-10 01:52:00,
2013-06-09 22:07:00,81.1,75.0,30.06,WNW,283,0.0,1.0,81,0.00,,,0.06,weatherlink.com 1.10,2013-06-10 02:07:00,
2013-06-09 22:22:00,80.4,75.0,30.06,East,93,0.0,3.0,83,0.00,,,0.06,weatherlink.com 1.10,2013-06-10 02:22:00,
2013-06-09 22:37:00,80.1,75.0,30.07,ENE,60,0.0,2.0,84,0.00,,,0.06,weatherlink.com 1.10,2013-06-10 02:37:00,
2013-06-09 22:52:00,79.9,75.0,30.07,ENE,75,0.0,1.0,84,0.00,,,0.06,weatherlink.com 1.10,2013-06-10 02:52:00,
2013-06-09 23:07:00,80.0,74.0,30.07,ENE,68,3.0,6.0,82,0.00,,,0.06,weatherlink.com 1.10,2013-06-10 03:07:00,
2013-06-09 23:22:00,79.5,74.0,30.07,ENE,60,4.0,4.0,84,0.00,,,0.06,weatherlink.com 1.10,2013-06-10 03:22:00,
2013-06-09 23:37:00,79.3,75.0,30.07,NE,56,0.0,4.0,85,0.00,,,0.06,weatherlink.com 1.10,2013-06-10 03:37:00,
2013-06-09 23:53:00,79.2,74.0,30.07,SE,124,0.0,4.0,85,0.00,,,0.06,weatherlink.com 1.10,2013-06-10 03:53:00,